World > North America > United States > Texas

Riverside, Texas Regional Weather

Lat: 30.85N, Lon: 95.4W
Wx Zone: TXZ177Web Search

Helpful Tip: Type the letters wx in the search engine next time you need to find us.

Feedback


°F Click to change Riverside hourly weather to Imperial units.Click to change Riverside hourly weather to Metric units. °C
Riverside Weather Map
UTC Time: 4/15/2021, 11:13
Your Time:

Riverside, TX Regional Weather

Expires:202104151200;;586800
ASUS44 KSJT 151110
RWRSJT
WEST CENTRAL TEXAS REGIONAL WEATHER ROUNDUP
NATIONAL WEATHER SERVICE SAN ANGELO TX
600 AM CDT THU APR 15 2021

NOTE: "FAIR" INDICATES FEW OR NO CLOUDS BELOW 12,000 FEET WITH NO
SIGNIFICANT WEATHER AND/OR OBSTRUCTIONS TO VISIBILITY.


TXZ163-177-195>197-199-213-226-237-151200-
SOUTHEAST TEXAS
  
CITY           SKY/WX    TMP DP  RH WIND       PRES   REMARKS
COLLEGE STN    CLOUDY    63  60  90 NE13      29.95S                  
CALDWELL       CLOUDY    62  61  96 NE8       29.96S                  
CROCKETT       NOT AVBL                                               
BRENHAM        CLOUDY    65  64  97 NE7       29.96R FOG              
HUNTSVILLE     CLOUDY    61  60  97 VRB7      29.97S                  
CONROE         CLOUDY    63  61  93 N7        29.95S                  
HOUSTON BUSH   LGT RAIN  65  63  93 N9        29.93R FOG              
HOUSTON HOBBY  DRIZZLE   67  64  90 N12       29.91R FOG              
PERLAND        CLOUDY    67  65  93 N12       29.92R FOG              
WHARTON        CLOUDY    66  65  96 NE6       29.91R FOG              
$$


SKY/WX - Weather  TMP - Temperature  DP - Dew Point  RH - Relative Humidity
WIND - Wind Direction/Speed PRES - Barometric Pressure VSB - Visibility
WCI - Wind Chill Index E13G22 Wind - East Wind 13 mph/Gusts of 22 mph